TimeCDT,TemperatureF,Dew PointF,Humidity,Sea Level PressureIn,VisibilityMPH,Wind Direction,Wind SpeedMPH,Gust SpeedMPH,PrecipitationIn,Events,Conditions,WindDirDegrees,DateUTC
12:15 AM,69.8,66.2,88,30.05,5.0,Calm,Calm,-,N/A,,Clear,0,2013-08-29 05:15:00
12:35 AM,69.8,68.0,94,30.05,4.0,Calm,Calm,-,N/A,,Clear,0,2013-08-29 05:35:00
12:55 AM,69.8,66.2,88,30.05,4.0,Calm,Calm,-,N/A,,Clear,0,2013-08-29 05:55:00
1:15 AM,69.8,66.2,88,30.05,5.0,Calm,Calm,-,N/A,,Clear,0,2013-08-29 06:15:00
1:35 AM,69.8,66.2,88,30.04,4.0,Calm,Calm,-,N/A,,Clear,0,2013-08-29 06:35:00
1:55 AM,68.0,64.4,88,30.03,4.0,Calm,Calm,-,N/A,,Clear,0,2013-08-29 06:55:00
2:15 AM,68.0,66.2,94,30.03,3.0,Calm,Calm,-,N/A,,Clear,0,2013-08-29 07:15:00
2:35 AM,68.0,64.4,88,30.03,3.0,Calm,Calm,-,N/A,,Clear,0,2013-08-29 07:35:00
2:55 AM,68.0,64.4,88,30.03,4.0,Calm,Calm,-,N/A,,Clear,0,2013-08-29 07:55:00
3:15 AM,68.0,64.4,88,30.03,4.0,Calm,Calm,-,N/A,,Clear,0,2013-08-29 08:15:00
3:35 AM,66.2,64.4,94,30.03,2.5,Calm,Calm,-,N/A,,Clear,0,2013-08-29 08:35:00
3:55 AM,68.0,64.4,88,30.04,3.0,Calm,Calm,-,N/A,,Clear,0,2013-08-29 08:55:00
4:15 AM,68.0,64.4,88,30.03,3.0,Calm,Calm,-,N/A,,Clear,0,2013-08-29 09:15:00
4:35 AM,66.2,64.4,94,30.03,3.0,Calm,Calm,-,N/A,,Clear,0,2013-08-29 09:35:00
4:55 AM,66.2,62.6,88,30.04,4.0,Calm,Calm,-,N/A,,Clear,0,2013-08-29 09:55:00
5:15 AM,66.2,64.4,94,30.04,1.8,Calm,Calm,-,N/A,,Mist,0,2013-08-29 10:15:00
5:35 AM,66.2,64.4,94,30.05,4.0,Calm,Calm,-,N/A,,Clear,0,2013-08-29 10:35:00
5:55 AM,66.2,64.4,94,30.05,3.0,Calm,Calm,-,N/A,,Clear,0,2013-08-29 10:55:00
6:15 AM,66.2,62.6,88,30.06,4.0,Calm,Calm,-,N/A,,Clear,0,2013-08-29 11:15:00
6:35 AM,66.2,64.4,94,30.07,2.5,Calm,Calm,-,N/A,,Clear,0,2013-08-29 11:35:00
6:55 AM,68.0,64.4,88,30.08,4.0,Calm,Calm,-,N/A,,Clear,0,2013-08-29 11:55:00
7:15 AM,68.0,64.4,88,30.08,4.0,Calm,Calm,-,N/A,,Clear,0,2013-08-29 12:15:00
7:35 AM,69.8,64.4,83,30.08,5.0,Calm,Calm,-,N/A,,Clear,0,2013-08-29 12:35:00
7:55 AM,69.8,66.2,88,30.08,5.0,Calm,Calm,-,N/A,,Clear,0,2013-08-29 12:55:00
8:15 AM,71.6,68.0,88,30.08,5.0,Calm,Calm,-,N/A,,Haze,0,2013-08-29 13:15:00
8:35 AM,73.4,68.0,83,30.08,7.0,Calm,Calm,-,N/A,,Clear,0,2013-08-29 13:35:00
8:55 AM,77.0,68.0,74,30.08,7.0,Calm,Calm,-,N/A,,Clear,0,2013-08-29 13:55:00
9:15 AM,78.8,68.0,69,30.07,7.0,Calm,Calm,-,N/A,,Clear,0,2013-08-29 14:15:00
9:35 AM,80.6,68.0,65,30.07,10.0,WNW,6.9,-,N/A,,Clear,290,2013-08-29 14:35:00
9:55 AM,82.4,66.2,58,30.08,10.0,NW,9.2,-,N/A,,Clear,310,2013-08-29 14:55:00
10:15 AM,84.2,66.2,55,30.08,10.0,NW,9.2,-,N/A,,Clear,320,2013-08-29 15:15:00
10:35 AM,86.0,66.2,51,30.07,10.0,North,9.2,-,N/A,,Clear,350,2013-08-29 15:35:00
10:55 AM,86.0,64.4,48,30.07,10.0,North,5.8,-,N/A,,Clear,350,2013-08-29 15:55:00
11:15 AM,86.0,66.2,51,30.06,10.0,WNW,6.9,-,N/A,,Clear,300,2013-08-29 16:15:00
11:35 AM,86.0,66.2,51,30.06,10.0,North,9.2,-,N/A,,Clear,10,2013-08-29 16:35:00
11:55 AM,86.0,66.2,51,30.05,10.0,NNW,8.1,-,N/A,,Scattered Clouds,340,2013-08-29 16:55:00
12:15 PM,87.8,68.0,52,30.05,10.0,NNW,9.2,-,N/A,,Scattered Clouds,330,2013-08-29 17:15:00
12:35 PM,87.8,68.0,52,30.05,10.0,NNW,4.6,-,N/A,,Scattered Clouds,340,2013-08-29 17:35:00
12:55 PM,87.8,66.2,49,30.04,10.0,NNW,8.1,-,N/A,,Scattered Clouds,330,2013-08-29 17:55:00
1:15 PM,87.8,66.2,49,30.04,10.0,NW,4.6,-,N/A,,Scattered Clouds,310,2013-08-29 18:15:00
1:35 PM,87.8,66.2,49,30.03,10.0,WNW,4.6,-,N/A,,Scattered Clouds,300,2013-08-29 18:35:00
1:55 PM,87.8,64.4,46,30.02,10.0,NNW,5.8,-,N/A,,Scattered Clouds,340,2013-08-29 18:55:00
2:15 PM,87.8,64.4,46,30.01,10.0,WNW,8.1,-,N/A,,Clear,290,2013-08-29 19:15:00
2:35 PM,89.6,64.4,43,30.01,10.0,NW,5.8,-,N/A,,Scattered Clouds,320,2013-08-29 19:35:00
2:55 PM,89.6,66.2,46,30.00,10.0,WNW,5.8,-,N/A,,Scattered Clouds,300,2013-08-29 19:55:00
3:15 PM,87.8,64.4,46,29.99,10.0,NNW,5.8,-,N/A,,Scattered Clouds,330,2013-08-29 20:15:00
3:35 PM,89.6,66.2,46,30.00,10.0,NNW,8.1,-,N/A,,Scattered Clouds,340,2013-08-29 20:35:00
3:55 PM,89.6,62.6,40,29.99,10.0,NNW,5.8,-,N/A,,Scattered Clouds,330,2013-08-29 20:55:00
4:15 PM,89.6,66.2,46,29.99,10.0,West,4.6,-,N/A,,Mostly Cloudy,280,2013-08-29 21:15:00
4:35 PM,89.6,66.2,46,29.99,10.0,NW,8.1,-,N/A,,Mostly Cloudy,320,2013-08-29 21:35:00
4:55 PM,89.6,66.2,46,29.98,10.0,WNW,5.8,-,N/A,,Scattered Clouds,290,2013-08-29 21:55:00
5:15 PM,87.8,68.0,52,29.98,10.0,WNW,4.6,-,N/A,,Scattered Clouds,290,2013-08-29 22:15:00
5:35 PM,87.8,68.0,52,29.98,10.0,WNW,4.6,-,N/A,,Clear,300,2013-08-29 22:35:00
5:55 PM,87.8,68.0,52,29.98,10.0,NW,6.9,-,N/A,,Clear,310,2013-08-29 22:55:00
6:15 PM,86.0,68.0,55,29.98,10.0,NW,4.6,-,N/A,,Clear,320,2013-08-29 23:15:00
6:35 PM,86.0,68.0,55,29.98,10.0,NW,3.5,-,N/A,,Clear,310,2013-08-29 23:35:00
6:55 PM,84.2,68.0,58,29.98,10.0,West,3.5,-,N/A,,Clear,280,2013-08-29 23:55:00
7:15 PM,82.4,68.0,62,29.98,10.0,Calm,Calm,-,N/A,,Clear,0,2013-08-30 00:15:00
7:35 PM,78.8,69.8,74,29.99,10.0,Calm,Calm,-,N/A,,Clear,0,2013-08-30 00:35:00
7:55 PM,78.8,69.8,74,29.99,10.0,Calm,Calm,-,N/A,,Clear,0,2013-08-30 00:55:00
8:15 PM,77.0,69.8,78,29.99,10.0,Calm,Calm,-,N/A,,Clear,0,2013-08-30 01:15:00
8:35 PM,77.0,69.8,78,30.00,10.0,Calm,Calm,-,N/A,,Clear,0,2013-08-30 01:35:00
8:55 PM,75.2,69.8,83,30.01,10.0,Calm,Calm,-,N/A,,Clear,0,2013-08-30 01:55:00
9:15 PM,75.2,69.8,83,30.00,10.0,Calm,Calm,-,N/A,,Clear,0,2013-08-30 02:15:00
9:35 PM,75.2,69.8,83,30.01,7.0,Calm,Calm,-,N/A,,Clear,0,2013-08-30 02:35:00
9:55 PM,75.2,69.8,83,30.01,10.0,Calm,Calm,-,N/A,,Clear,0,2013-08-30 02:55:00
10:15 PM,73.4,69.8,88,30.01,7.0,Calm,Calm,-,N/A,,Clear,0,2013-08-30 03:15:00
10:35 PM,73.4,69.8,88,30.00,5.0,Calm,Calm,-,N/A,,Haze,0,2013-08-30 03:35:00
10:55 PM,73.4,69.8,88,30.00,7.0,Calm,Calm,-,N/A,,Clear,0,2013-08-30 03:55:00
11:15 PM,73.4,69.8,88,30.00,7.0,Calm,Calm,-,N/A,,Clear,0,2013-08-30 04:15:00
11:35 PM,73.4,69.8,88,30.00,7.0,Calm,Calm,-,N/A,,Clear,0,2013-08-30 04:35:00
11:55 PM,71.6,69.8,94,29.99,7.0,Calm,Calm,-,N/A,,Clear,0,2013-08-30 04:55:00